www.pogodaiklimat.ru

Погода и климат >> Архив погоды >> Россия >> Тува >> Туран


ПОГОДА в Туране

  • Прогноз погоды в Туране
  • Монитор погоды в Туране

АРХИВ ПОГОДЫ в Туране

Время (UTC), дата Ветер
(напр.,м/с)
 
Видим.   Явления Облачность Т
(С)
Тd
(С)
f
(%)
Тe
(С)
Тes
(С)
Комфортность P
(гПа)
Po
(гПа)
Тmin
(С)
Tmax
(С)
R
(мм)
R24
(мм)
S
(см)
15 11.04 С 2 20 км 4/4 600 м
[Cb cap]
-0.6 -16.6 29 -3 -3 1024.0 920.1
18 11.04 ЮЗ 1 20 км 4/4 1000 м
[Sc]
-3.8 -13.6 46 -5 -5 1025.3 920.1
21 11.04 С 1 20 км ясно -5.9 -14.3 51 -8 -8 1025.7 919.7
00 12.04 В 1 50 км ясно -6.9 -13.7 58 -9 -8 1027.7 921.1 -7.1
03 12.04 З 2 50 км 3/3 600 м
[Cb cap]
+2.8 -14.7 26 +1 +6 1024.3 921.5
06 12.04 З 3
{10}
50 км 6/6 600 м
[Cb cap]
+5.0 -12.9 26 +3 +7 1023.6 921.6
09 12.04 СЗ 5-10
{10}
50 км 8/8 600 м
[Cb cap]
+7.5 -13.4 21 +5 +5 1022.1 921.2
12 12.04 С 4
{10}
50 км 6/6 600 м
[Cb cap]
+6.8 -11.2 26 +4 +4 1022.8 921.6 +8.4
15 12.04 СЗ 2 20 км ясно -0.9 -10.5 48 -4 -4 1026.8 922.5
18 12.04 ЮВ 1 20 км ясно -4.4 -10.4 63 -6 -6 1028.0 922.4
21 12.04 С 4 20 км 3/0
[Ci sp]
-3.4 -9.9 61 -9 -9 1026.8 921.6
00 13.04 СЗ 1 50 км 3/0
[Ci sp]
-5.9 -9.8 74 -8 -7 1028.9 922.5 -6.3
03 13.04 СВ 1 50 км 3/0
[Ci fib]
+5.0 -9.3 35 +5 +13 1023.8 921.9
06 13.04 Ю 3 50 км ясно +12.3 -10.4 19 +11 +22 опасность
простуды
1017.3 918.5
09 13.04 ЮВ 2 50 км 3/0
[Ci fib]
+15.9 -11.2 14 +16 +22 1012.5 915.4
12 13.04 Ю 2 50 км 4/0
[Ci sp]
+14.9 -12.3 14 +15 +15 1011.5 914.1 +16.2
15 13.04 ЮВ 1 20 км ясно +3.7 -9.2 38 +3 +3 1015.4 913.9
18 13.04 В 1 20 км ясно +0.8 -8.7 49 -0 -0 1017.2 914.5
21 13.04 ЮВ 1 20 км ясно -3.8 -9.5 65 -6 -6 1018.7 914.3
00 14.04 штиль 0 50 км ясно -5.6 -9.4 75 -6 -5 1019.8 914.5 -5.9
03 14.04 ЮВ 1 50 км ясно +9.6 -9.4 25 +10 +19 1013.2 913.9
06 14.04 З 5-10
{11}
50 км 4/4 600 м
[Cb cap]
+15.5 -13.3 12 +15 +19 1008.9 911.9
09 14.04 З 3
{10}
50 км 8/8 600 м
[Cb cap]
+15.8 -12.2 13 +16 +17 1006.9 910.2
12 14.04 СЗ 7-12
{14}
50 км 10/10 600 м
[Cb cap]
+11.9 -5.9 28 +9 +9 1009.0 910.9 +17.0
15 14.04 СЗ 4
{12}
20 км 8/8 600 м
[Cb cap]
+9.4 -5.3 35 +7 +7 1011.1 912.0
18 14.04 СЗ 2 20 км 8/8 600 м
[Cb cap]
+6.1 -1.4 59 +4 +4 1012.9 912.5
21 14.04 штиль 0 20 км 5/5 600 м
[Cb cap]
+0.7 -3.9 71 -0 -0 1012.0 909.9
00 15.04 СВ 1 50 км 10/10 600 м
[Cb cap]
+1.8 -2.6 73 0 0 1009.3 907.8 -0.5
03 15.04 СВ 1 50 км 10/10 600 м
[Cb cap]
+6.7 -2.3 53 +6 +6 1005.8 906.4
06 15.04 СЗ 1 50 км 10/10 600 м
[Cb cap]
+10.8 -0.7 45 +11 +11 1003.3 905.5
09 15.04 З 3 50 км 9/9 600 м
[Cb cap]
+12.3 -0.8 40 +11 +12 1001.8 904.6
12 15.04 С 3 50 км 8/8 600 м
[Cb cap]
+7.5 -0.8 56 +5 +5 1003.7 904.7 +12.6
15 15.04 СЗ 2 20 км слаб. ливневой дождь 10/10 600 м
[Cb cap]
+5.3 +0.1 69 +3 +3 1003.3 903.6
18 15.04 СВ 1 20 км {ливн. осадки} 10/10 600 м
[Cb cap]
+3.3 +1.7 89 +2 +2 1000.1 900.2
21 15.04 СВ 3 20 км 10/10 600 м
[Cb cap]
+2.0 +0.4 89 -2 -2 996.9 896.8
00 16.04 штиль 0 20 км слаб. ливневой дождь 10/10 600 м
[Cb cap]
+1.2 +0.1 92 0 0 995.4 895.2 +1.2 0.9
03 16.04 штиль 0 50 км {ливн. осадки} 10/10 600 м
[Cb cap]
+4.1 +2.4 89 +3 +3 993.7 894.7
06 16.04 З 5 50 км {ливн. осадки} 10/10 600 м
[Cb cap]
+8.3 +0.3 57 +5 +5 993.5 895.8
09 16.04 С 6-12
{14}
50 км 5/5 600 м
[Cb cap]
+5.7 -6.6 41 +2 +3 1001.0 901.6
12 16.04 С 5
{13}
50 км 6/6 600 м
[Cb cap]
+2.9 -8.6 42 -2 -1 1006.8 905.9 +8.7 0.0
15 16.04 СЗ 5 20 км 6/6 600 м
[Cb cap]
-0.1 -10.1 47 -5 -5 1011.3 908.9
18 16.04 З 1 20 км ясно -2.4 -7.6 67 -4 -4 1014.2 910.8
21 16.04 Ю 1 20 км 3/0
[Ci fib]
-6.3 -9.9 76 -9 -9 1018.3 912.9
00 17.04 ЮВ 1 50 км ясно -7.7 -10.8 78 -10 -9 1020.2 914.1 -7.9
03 17.04 ЮЗ 1 50 км 3/3 1000 м
[Cu med, cong]
+1.2 -11.3 39 0 +7 1016.2 914.1
06 17.04 З 2 50 км 5/3 1000 м
[Cu med, cong Ci sp]
+6.2 -14.1 22 +5 +13 1013.1 912.6
09 17.04 ЮВ 2 50 км 4/4 1000 м
[Cu med, cong]
+7.3 -11.9 24 +6 +10 1010.9 911.1
12 17.04 В 2 50 км 3/3 1000 м
[Cu med, cong]
+8.1 -11.2 24 +7 +7 1009.8 910.4 +9.5
15 17.04 СВ 1 20 км ясно +0.7 -10.9 41 -0 -0 1012.6 910.4
18 17.04 В 1 20 км ясно -1.6 -9.8 54 -3 -3 1012.8 909.7
21 17.04 СЗ 2 20 км ясно -1.9 -9.4 56 -5 -5 1011.8 908.6
00 18.04 СЗ 1 50 км ясно -5.0 -9.5 71 -7 -6 1012.0 907.8 -6.2
03 18.04 В 1 50 км 4/4 600 м
[Cb cap]
+6.8 -8.9 32 +7 +13 1003.8 904.5 -6.8
06 18.04 ЮВ 6-10
{12}
50 км 4/3 600 м
[Cb cap Ci sp]
+13.8 -9.5 19 +12 +16 996.2 899.9
09 18.04 Ю 7-14
{15}
50 км 6/5 600 м
[Cb cap Ci sp]
+18.6 -11.4 12 +18 +19 990.6 896.4
12 18.04 С 7-14
{16}
50 км 10/10 600 м
[Cb cap]
+3.8 -7.1 45 -1 -1 1003.1 902.9 +18.8

 

Местоположение метеостанции Туран (Тува, Россия): широта 52.13 долгота 93.92 высота над уровнем моря 862 м.

В архиве по умолчанию представлена погода в Туране за последнюю неделю. Архивные данные за месяц целиком и за предыдущие месяцы, начиная с января 2011 года, Вы можете получить, выбрав интересующий диапазон дат из раскрывающегося списка и нажав кнопку "Ввод!".


*Определитесь, кто Вы:
робот инопланетянин человек

Внимание! Время в таблицах - всемирное. Для получения местного времени необходимо прибавить поправку, которая равна 7 ч.

Смотрите также архив погоды в соседних городах и на ближайших метеорологических станциях:

Погода в Кызыле (Тува, Россия) (61 км)
Погода в Нижнеусинском (Красноярский край, Россия) (63 км)
Погода в Оленьей Речке (Красноярский край, Россия) (88 км)
Погода в Хову-Аксы (Тува, Россия) (113 км)
Погода в Шагонаре (Тува, Россия) (114 км)
Погода в Сосновке (Тува, Россия) (117 км)
Погода в Усть-Усе (Красноярский край, Россия) (118 км)
Погода в Сарыг-Сепе (Тува, Россия) (133 км)
Погода в Тоора-Хем (Тува, Россия) (153 км)
Погода в Ермаковском (Красноярский край, Россия) (165 км)

Пояснения к столбцам:

Ветер - указаны скорость ветра в м/с - средняя за 10 мин, порывы в срок и между сроками (в фигурных скобках) и направление, откуда дует ветер: С - северный, СВ - северо-восточный, В - восточный, ЮВ - юго-восточный, Ю - южный, ЮЗ - юго-западный, З - западный, СЗ - северо-западный.
Видимость - горизонтальная дальность видимости в метрах или километрах. При видимости от 1 до 10 км при отсутствии осадков обычно наблюдается дымка, при ухудшении видимости до 1 км и менее - туман. В сухую погоду видимость может ухудшаться дымом, пылью или мглою.
Явления - указаны атмосферные явления, наблюдавшиеся в срок или в последний час перед сроком; фигурными скобками обозначены явления, наблюдавшиеся между сроками (за 1-3 часа до срока); квадратными скобками обозначены град или гололедные отложения с указанием их диаметра в мм.
Облачность - указаны через наклонную черту общая и нижняя облачность в баллах и высота нижней границы облаков в метрах; квадратными скобками обозначены формы облаков: Ci - перистые, Cs - перисто-слоистые, Cc - перисто-кучевые, Ac - высококучевые, As - высокослоистые, Sc - слоисто-кучевые, Ns - слоисто-дождевые, Cu - кучевые, Cb - кучево-дождевые. Подробнее классификацию облаков см. в Атласе облаков (PDF).
T - Температура воздуха - температура, измеренная на высоте 2 м над землей.
Td - Температура точки росы - температура, при понижении до которой содержащийся в воздухе водяной пар достигнет насыщения.
f - Относительная влажность воздуха - влажноcть воздуха, измеренная на высоте 2 м над землей.
Te - Эффективная температура - температура, которую ощущает одетый по сезону человек в тени. Характеристика душности погоды. При расчете учитывается влияние влажности воздуха и скорости ветра на теплоощущения человека.
Tes - Эффективная температура на солнце - температура, которую ощущает человек, с поправкой на солнечный нагрев. Характеристика знойности погоды. Зависит от высоты солнца над горизонтом, облачности и скорости ветра. Ночью, в пасмурную погоду, а также при ветре 12 м/с и более поправка равна нулю.
P - Атмосферное давление - приведенное к уровню моря атмосферное давление.
Po - Атмосферное давление - измеренное на уровне метеостанции атмосферное давление.
Tmin - Минимальная температура - минимум температуры воздуха на высоте 2 м над землей.
Tmax - Максимальная температура - максимум температуры воздуха на высоте 2 м над землей.
R - Количество осадков - Количество выпавших осадков за период времени, мм. При наведении курсора мыши на число - период времени, за который выпало указанное количество осадков.
R24 - Количество осадков - Количество выпавших осадков за 24 часа, мм.
S - Снежный покров - Высота снежного покрова, см. При наведении курсора мыши на число - состояние снежного покрова и степень покрытия местности в баллах.